Weather History for Kimball, NE

Change the Weather History Date:

Monday, June 23, 2014

  Actual Average (KSNY) Record (KSNY)
Temperature  
Mean Temperature 60 °F 70 °F  
Max Temperature 73 °F 86 °F 106 °F (2012)
Min Temperature 47 °F 55 °F 44 °F (1964)
Degree Days  
Heating Degree Days 5 1  
Month to date heating degree days 54  
Since 1 June heating degree days 54  
Since 1 July heating degree days 6216  
Cooling Degree Days 0 6  
Month to date cooling degree days 85  
Year to date cooling degree days 107  
Since 1 June cooling degree days 85  
Growing Degree Days 10 (Base 50)    
Moisture  
Dew Point 49 °F    
Average Humidity 67    
Maximum Humidity 94    
Minimum Humidity 41    
Precipitation  
Precipitation 0.04 in 0.11 in 1.22 in (1988)
Month to date precipitation 2.54  
Year to date precipitation 9.30  
Sea Level Pressure  
Sea Level Pressure 30.13 in    
Wind  
Wind Speed 6 mph (NNE)    
Max Wind Speed 14 mph    
Max Gust Speed 18 mph    
Visibility 10 miles    
Events Rain , Thunderstorm    
T = Trace of Precipitation, MM = Missing Value Source: NWS Daily Summary

Daily Weather History Graph

Daily Weather History Graph

Search for Another Location

Airport:

Trip Planner

Search our weather history database for the weather conditions in past years. The results will help you decide how hot, cold, wet, or windy it might be!

Date:

Astronomy

Jun. 23, 2014 Rise Set
Actual Time 6:22 AM CDT 9:31 PM CDT
Civil Twilight 5:48 AM CDT 10:05 PM CDT
Nautical Twilight 5:05 AM CDT 10:48 PM CDT
Astronomical Twilight 4:13 AM CDT 11:39 PM CDT
Moon 3:51 AM CDT (6/23) 6:13 PM CDT (6/23)
Length of Visible Light 16h 16m
Length of Day
15h 08m
Waning Crescent, 13% of the Moon is Illuminated
Jun 23
Waning Crescent
Jun 27
New
Jul 5
First Quarter
Jul 12
Full
Jul 18
Last Quarter

Hourly Weather History & Observations

Time (CDT) Temp. Dew Point Humidity Pressure Visibility Wind Dir Wind Speed Gust Speed Precip Events Conditions
12:35 AM 52.9 °F 49.3 °F 88% 30.11 in 10.0 mi ENE 10.4 mph - N/A   Clear
12:55 AM 52.7 °F 49.6 °F 89% 30.12 in 10.0 mi North 3.5 mph - N/A   Scattered Clouds
1:15 AM 52.2 °F 49.3 °F 90% 30.12 in 10.0 mi NNW 3.5 mph - N/A   Scattered Clouds
1:35 AM 52.0 °F 49.3 °F 90% 30.12 in 10.0 mi WNW 4.6 mph - N/A   Clear
1:55 AM 51.4 °F 49.1 °F 92% 30.13 in 10.0 mi NW 4.6 mph - N/A   Clear
2:15 AM 51.4 °F 49.1 °F 92% 30.12 in 10.0 mi NW 4.6 mph - N/A   Clear
2:35 AM 50.9 °F 48.6 °F 92% 30.11 in 10.0 mi WNW 6.9 mph - N/A   Clear
2:55 AM 50.4 °F 48.2 °F 92% 30.12 in 10.0 mi WNW 4.6 mph - N/A   Clear
3:15 AM 50.0 °F 47.8 °F 92% 30.10 in 10.0 mi West 5.8 mph - N/A   Clear
3:35 AM 50.0 °F 48.2 °F 94% 30.11 in 10.0 mi West 8.1 mph - N/A   Clear
3:55 AM 50.0 °F 47.7 °F 92% 30.10 in 10.0 mi WSW 4.6 mph - N/A   Clear
4:15 AM 49.1 °F 46.9 °F 92% 30.11 in 10.0 mi SW 5.8 mph - N/A   Clear
4:35 AM 48.0 °F 45.9 °F 92% 30.10 in 10.0 mi SW 5.8 mph - N/A   Clear
4:55 AM 48.7 °F 46.8 °F 93% 30.11 in 10.0 mi WSW 4.6 mph - N/A   Clear
5:15 AM 47.7 °F 45.3 °F 92% 30.11 in 10.0 mi West 5.8 mph - N/A   Clear
5:35 AM 48.0 °F 46.0 °F 93% 30.11 in 10.0 mi West 9.2 mph - N/A   Clear
5:55 AM 48.4 °F 46.0 °F 92% 30.10 in 10.0 mi West 9.2 mph - N/A   Clear
6:15 AM 48.6 °F 45.9 °F 90% 30.11 in 10.0 mi West 6.9 mph - N/A   Clear
6:35 AM 48.2 °F 45.5 °F 90% 30.11 in 10.0 mi West 6.9 mph - N/A   Clear
6:55 AM 47.8 °F 45.5 °F 92% 30.12 in 10.0 mi WNW 6.9 mph - N/A   Scattered Clouds
7:15 AM 48.7 °F 46.4 °F 92% 30.12 in 10.0 mi West 6.9 mph - N/A   Clear
7:35 AM 51.1 °F 48.2 °F 90% 30.13 in 10.0 mi West 5.8 mph - N/A   Scattered Clouds
7:55 AM 52.7 °F 48.7 °F 86% 30.13 in 10.0 mi NW 8.1 mph - N/A   Scattered Clouds
8:15 AM 52.9 °F 48.2 °F 84% 30.13 in 10.0 mi NNW 6.9 mph - N/A   Mostly Cloudy
8:35 AM 53.6 °F 48.4 °F 82% 30.15 in 10.0 mi NNW 3.5 mph - N/A   Overcast
8:55 AM 54.5 °F 48.2 °F 79% 30.15 in 10.0 mi NNW 8.1 mph - N/A   Mostly Cloudy
9:15 AM 58.8 °F 47.5 °F 66% 30.14 in 10.0 mi NNW 9.2 mph - N/A   Scattered Clouds
9:35 AM 60.3 °F 47.7 °F 63% 30.14 in 10.0 mi NNW 6.9 mph - N/A   Clear
9:55 AM 61.5 °F 48.4 °F 62% 30.14 in 10.0 mi North 6.9 mph - N/A   Scattered Clouds
10:15 AM 61.5 °F 46.6 °F 58% 30.14 in 10.0 mi NNW 4.6 mph - N/A   Mostly Cloudy
10:35 AM 63.3 °F 47.7 °F 57% 30.14 in 10.0 mi North 5.8 mph - N/A   Scattered Clouds
10:55 AM 64.6 °F 46.4 °F 52% 30.14 in 10.0 mi North 3.5 mph - N/A   Clear
11:15 AM 66.4 °F 47.5 °F 51% 30.14 in 10.0 mi NNE 4.6 mph - N/A   Clear
11:35 AM 66.7 °F 45.7 °F 47% 30.14 in 10.0 mi NE 5.8 mph - N/A   Clear
11:55 AM 67.5 °F 46.8 °F 47% 30.14 in 10.0 mi North 3.5 mph - N/A   Clear
12:15 PM 67.6 °F 46.8 °F 47% 30.15 in 10.0 mi NE 5.8 mph - N/A   Clear
12:35 PM 68.5 °F 47.1 °F 46% 30.14 in 10.0 mi East 5.8 mph - N/A   Clear
12:55 PM 70.7 °F 47.7 °F 44% 30.14 in 10.0 mi NNE 3.5 mph - N/A   Mostly Cloudy
1:15 PM 68.4 °F 47.5 °F 47% 30.14 in 10.0 mi NNE 8.1 mph - N/A   Overcast
1:35 PM 69.6 °F 47.7 °F 45% 30.14 in 10.0 mi NE 8.1 mph - N/A   Overcast
1:55 PM 68.9 °F 48.2 °F 48% 30.14 in 10.0 mi East 8.1 mph - N/A   Mostly Cloudy
2:15 PM 71.4 °F 48.6 °F 44% 30.14 in 10.0 mi NE 6.9 mph - N/A   Scattered Clouds
2:35 PM 70.0 °F 48.6 °F 46% 30.14 in - East 3.5 mph - 0.03 in   Scattered Clouds
2:55 PM 71.6 °F 48.0 °F 43% 30.13 in - ENE 8.1 mph - 0.03 in   Scattered Clouds
3:15 PM 72.7 °F 49.3 °F 44% 30.13 in 10.0 mi ENE 8.1 mph - N/A   Mostly Cloudy
3:35 PM 72.0 °F 49.1 °F 44% 30.12 in 10.0 mi ENE 11.5 mph - N/A   Mostly Cloudy
3:55 PM 71.1 °F 48.7 °F 45% 30.12 in 10.0 mi NE 5.8 mph - N/A   Scattered Clouds
4:15 PM 73.8 °F 48.9 °F 41% 30.12 in 10.0 mi East 10.4 mph 16.1 mph N/A   Scattered Clouds
4:35 PM 70.7 °F 48.6 °F 45% 30.11 in 10.0 mi East 5.8 mph - N/A   Mostly Cloudy
4:55 PM 73.8 °F 49.3 °F 42% 30.11 in 10.0 mi East 9.2 mph - N/A   Mostly Cloudy
5:15 PM 73.4 °F 49.6 °F 43% 30.11 in 10.0 mi ENE 9.2 mph - N/A   Mostly Cloudy
5:35 PM 73.9 °F 50.0 °F 43% 30.11 in 10.0 mi East 13.8 mph 17.3 mph N/A   Scattered Clouds
5:55 PM 72.1 °F 48.2 °F 43% 30.11 in 10.0 mi East 5.8 mph - N/A   Clear
6:15 PM 73.0 °F 48.4 °F 42% 30.11 in 10.0 mi East 8.1 mph - N/A   Scattered Clouds
6:35 PM 71.8 °F 48.7 °F 44% 30.10 in 10.0 mi East 10.4 mph - N/A   Scattered Clouds
6:55 PM 70.2 °F 48.6 °F 46% 30.11 in 10.0 mi East 5.8 mph - N/A   Scattered Clouds
7:15 PM 69.1 °F 49.6 °F 50% 30.10 in 10.0 mi East 8.1 mph - N/A   Clear
7:35 PM 67.5 °F 50.4 °F 54% 30.10 in 10.0 mi East 6.9 mph - N/A   Clear
7:55 PM 66.7 °F 50.2 °F 55% 30.09 in 10.0 mi East 6.9 mph - N/A   Clear
8:15 PM 66.7 °F 50.0 °F 55% 30.10 in 10.0 mi ENE 5.8 mph - N/A   Clear
8:35 PM 65.3 °F 50.9 °F 60% 30.12 in 10.0 mi East 3.5 mph - N/A   Clear
8:55 PM 64.8 °F 52.0 °F 63% 30.13 in 10.0 mi Calm Calm - N/A   Mostly Cloudy
9:15 PM 65.1 °F 52.2 °F 63% 30.13 in 10.0 mi Calm Calm - N/A Thunderstorm Overcast
9:35 PM 64.0 °F 52.2 °F 65% 30.14 in 10.0 mi ESE 3.5 mph - N/A   Mostly Cloudy
9:55 PM 64.4 °F 52.5 °F 65% 30.15 in 10.0 mi SSE 4.6 mph - N/A   Overcast
10:15 PM 63.7 °F 53.4 °F 69% 30.17 in 10.0 mi South 5.8 mph - N/A Rain Light Rain
10:35 PM 62.4 °F 55.0 °F 77% 30.17 in 10.0 mi South 5.8 mph - N/A Rain Light Rain
10:55 PM 61.9 °F 55.2 °F 79% 30.16 in 10.0 mi South 9.2 mph - 0.01 in Rain Light Rain
11:15 PM 61.0 °F 55.6 °F 82% 30.13 in 10.0 mi SSW 11.5 mph 18.4 mph N/A Rain Light Rain
11:35 PM 61.7 °F 54.7 °F 78% 30.15 in 10.0 mi East 3.5 mph - N/A   Overcast
11:55 PM 61.7 °F 54.1 °F 76% 30.15 in 10.0 mi Calm Calm - N/A   Overcast